[Iaude] MPEC B95: 2017 BV6 [a=1.88,e=0.45,i=18.3,H=22.6]

mpec at si.edu mpec at si.edu
Sat Jan 28 08:27:24 EST 2017


M.P.E.C. 2017-B95                                Issued 2017 Jan. 28, 13:24 UT
 
     The Minor Planet Electronic Circulars contain information on unusual
         minor planets and routine data on comets.  They are published
    on behalf of Division F of the International Astronomical Union by the
          Minor Planet Center, Smithsonian Astrophysical Observatory,
                          Cambridge, MA 02138, U.S.A.

             Prepared using the Tamkin Foundation Computer Network

                              MPC at CFA.HARVARD.EDU
            URL http://www.minorplanetcenter.net/    ISSN 1523-6714


                                   2017 BV6
 
Observations:
     K17B06V* C2017 01 26.41810 10 25 33.56 +20 52 23.6          20.3 VqEB095G96
     K17B06V  C2017 01 26.42827 10 25 33.38 +20 51 31.9          20.2 VqEB095G96
     K17B06V  C2017 01 26.43823 10 25 33.20 +20 50 40.8          20.2 VqEB095G96
     K17B06V  C2017 01 26.51423 10 25 31.98 +20 44 10.8          20.5 VqEB095G96
     K17B06V  C2017 01 26.51828 10 25 31.91 +20 43 50.2          20.1 VqEB095G96
     K17B06V  C2017 01 26.52233 10 25 31.79 +20 43 29.5                qEB095G96
     K17B06V KC2017 01 26.82917 10 25 35.11 +20 16 48.5          20.0 RoEB095K51
     K17B06V KC2017 01 26.83103 10 25 35.09 +20 16 39.2          20.0 RoEB095K51
     K17B06V KC2017 01 26.83289 10 25 35.07 +20 16 30.0          19.9 RoEB095K51
     K17B06V KC2017 01 27.04341 10 25 31.94 +19 58 08.8          19.9 RoEB095K88
     K17B06V KC2017 01 27.04754 10 25 31.86 +19 57 47.6          19.6 RoEB095K88
     K17B06V KC2017 01 27.05168 10 25 31.77 +19 57 25.7          19.7 RoEB095K88
     K17B06V  C2017 01 27.24832 10 25 33.31 +19 40 01.7          21.2 VqEB095G96
     K17B06V  C2017 01 27.25010 10 25 33.26 +19 39 52.2          21.1 VqEB095G96
     K17B06V  C2017 01 27.25544 10 25 33.23 +19 39 23.4          21.1 VqEB095G96
     K17B06V  C2017 01 27.40078 10 25 30.19 +19 26 23.2          20.7 RoEB095926
     K17B06V  C2017 01 27.40615 10 25 30.09 +19 25 54.2          20.6 RoEB095926
     K17B06V  C2017 01 27.41176 10 25 29.95 +19 25 24.0          20.9 RoEB095926
     K17B06V KC2017 01 28.07252 10 25 24.98 +18 23 55.9          19.8 RoEB095K88
     K17B06V KC2017 01 28.07597 10 25 24.90 +18 23 36.0          19.5 RoEB095K88
     K17B06V KC2017 01 28.07941 10 25 24.81 +18 23 16.8          19.1 RoEB095K88
     K17B06V  C2017 01 28.31747 10 25 24.55 +18 00 41.4          20.2 VqEB095G96
     K17B06V  C2017 01 28.31937 10 25 24.53 +18 00 30.4          20.8 VqEB095G96
 
Observer details:
926 Tenagra II Observatory.  Observers M. Schwartz, P. R. Holvorcem.  Measurer
    M. Schwartz.  0.81-m f/7 Ritchey-Chretien + CCD.
G96 Mt. Lemmon Survey.  Observers D. C. Fuls, R. A. Kowalski.  Measurers
    E. J. Christensen, D. C. Fuls, A. R. Gibbs, A. D. Grauer, J. A. Johnson,
    R. A. Kowalski, S. M. Larson, G. J. Leonard, R. G. Matheny, R. L. Seaman,
    F. C. Shelly.  1.5-m reflector + 10K CCD.
K51 Osservatorio del Celado, Castello Tesino.  Observers G. Favero, R. Furgoni.
    Measurer R. Furgoni.  0.80-m f/4 reflector + CCD.
K88 GINOP-KHK, Piszkesteto.  Observer K. Sarneczky.  0.60-m Schmidt + CCD.
 
Orbital elements:
2017 BV6                                                 Earth MOID = 0.1192 AU
Epoch 2017 Feb. 16.0 TT = JDT 2457800.5                 MPC
M 348.50630              (2000.0)            P               Q
n   0.38374722     Peri.  227.30620     -0.97275618     +0.07609569
a   1.8754517      Node   315.68715     +0.06805739     -0.80924099
e   0.4541465      Incl.   18.26877     -0.22161589     -0.58252765
P   2.57           H   22.6           G   0.15           U   8
Residuals in seconds of arc
170126 G96  0.2+  0.3-    170126 K51  0.3-  0.4+    170127 926  0.2+  0.1-
170126 G96  0.2+  0.2-    170127 K88  0.0   0.2-    170127 926  0.0   0.3+
170126 G96  0.2+  0.5-    170127 K88  0.1-  0.5+    170128 K88  0.2+  0.0
170126 G96  0.3+  0.0     170127 K88  0.4-  0.6+    170128 K88  0.1+  0.2-
170126 G96  0.1+  0.3+    170127 G96  0.2+  0.1-    170128 K88  0.1-  0.2+
170126 G96  0.8-  0.6+    170127 G96  0.1-  0.2-    170128 G96  0.3-  0.1+
170126 K51  0.0   0.3-    170127 G96  0.7+  0.6-    170128 G96  0.1+  0.0
170126 K51  0.1-  0.0     170127 926  0.1-  0.3-

Ephemeris:
2017 BV6                 a,e,i = 1.88, 0.45, 18                  q = 1.0237
Date    TT    R. A. (2000) Decl.     Delta      r     Elong.  Phase     V
2016 12 29    10 04 04.2 +39 07 38   0.4513  1.3317   132.8    32.8    22.9
...
2017 01 13    10 20 21.1 +33 19 59   0.3079  1.2418   142.4    28.9    21.8
...
2017 01 21    10 24 44.7 +27 15 27   0.2411  1.1971   148.9    25.1    21.1
...
2017 01 27    10 25 32.3 +20 02 24   0.1970  1.1656   154.5    21.3    20.4
2017 01 28    10 25 26.2 +18 31 15   0.1902  1.1606   155.4    20.7    20.3
2017 01 29    10 25 15.9 +16 53 37   0.1838  1.1556   156.3    20.0    20.2
...
2017 02 04    10 22 40.8 +04 28 47   0.1503  1.1271   158.7    18.5    19.7
...
2017 02 12    10 14 36.4 -19 39 13   0.1259  1.0934   145.6    30.6    19.6
...
2017 02 27    09 36 55.1 -63 29 36   0.1548  1.0463   107.1    64.8    20.9

A. U. Tomatic                (C) Copyright 2017 MPC           M.P.E.C. 2017-B95




More information about the Iaude mailing list